{"data":{"norad_id":63440,"epoch":"2026-05-25T00:02:14.163648Z","epoch_age_seconds":75069,"freshness":"FRESH","line1":"1 63440U 25069H   26145.00155282  .00034819  00000+0  80551-3 0  9996","line2":"2 63440  53.1587 145.5143 0000834  58.6748 301.4339 15.42175898 65019","mean_motion":15.42175898,"eccentricity":8.34e-5,"inclination_deg":53.1587,"raan_deg":145.5143,"arg_perigee_deg":58.6748,"mean_anomaly_deg":301.4339,"bstar":0.00080551,"rev_number":6501,"period_min":93.374562646679,"perigee_km":439.12019083744,"apogee_km":440.25740418047,"semimajor_km":6817.825797509,"source":"CELESTRAK","updated_at":"2026-05-25T13:38:19.999320Z"}}